Date,TemperatureHighF,TemperatureAvgF,TemperatureLowF,DewpointHighF,DewpointAvgF,DewpointLowF,HumidityHigh,HumidityAvg,HumidityLow,PressureMaxIn,PressureMinIn,WindSpeedMaxMPH,WindSpeedAvgMPH,GustSpeedMaxMPH,PrecipitationSumIn
2013-4-1,46,36,25,26,13,5,64,40,25,29.32,28.94,24,8,24,0.17
2013-4-2,46,33,21,16,9,2,63,38,22,29.47,29.32,20,6,20,0.17
2013-4-3,48,34,22,15,7,1,57,34,17,29.59,29.44,22,4,22,0.17
2013-4-4,60,42,24,20,9,3,47,29,14,29.56,29.17,10,1,10,0.17
2013-4-5,54,44,34,27,15,4,57,33,15,29.41,29.14,18,4,18,0.17
2013-4-6,61,47,33,22,17,13,53,31,19,29.47,29.03,21,5,21,0.17
2013-4-7,66,58,46,40,32,20,52,38,25,29.23,28.91,18,4,18,0.17
2013-4-8,72,54,40,52,38,24,67,54,37,29.26,28.97,17,4,17,0.17
2013-4-9,74,55,45,44,39,34,76,57,31,29.29,29.09,14,4,14,0.17
2013-4-10,50,48,43,48,44,42,96,86,75,29.17,29.03,17,4,17,0.54
2013-4-11,43,40,39,42,38,36,97,93,87,29.17,28.82,19,7,24,1.24
2013-4-12,45,41,38,42,35,27,98,81,54,29.03,28.73,13,2,13,0.34
2013-4-13,46,41,38,36,29,23,81,63,46,29.23,29.03,12,2,12,0.34
2013-4-14,57,45,36,35,30,26,77,59,39,29.32,29.14,17,4,17,0.34
2013-4-15,75,58,37,50,41,30,90,57,34,29.17,29.09,18,2,18,0.34
2013-4-16,63,56,48,51,45,36,93,67,42,29.41,29.09,12,2,12,0.50
2013-4-17,51,49,45,42,32,26,75,52,38,29.47,29.26,22,5,22,0.04
2013-4-18,84,62,46,61,52,35,91,72,40,29.26,28.82,16,2,16,0.62
2013-4-19,60,46,37,58,37,25,94,71,49,29.06,28.61,19,3,19,0.29
2013-4-20,47,38,32,30,22,14,86,54,33,29.62,29.03,22,5,22,0.29
2013-4-21,57,40,25,28,21,12,74,49,30,29.79,29.62,15,4,15,0.29
2013-4-22,69,49,32,36,26,21,80,46,20,29.65,29.38,15,4,15,0.29
2013-4-23,78,58,40,52,37,27,84,50,23,29.38,29.03,13,1,13,0.29
2013-4-24,57,43,35,54,38,24,94,81,51,29.38,28.94,17,5,17,0.62
2013-4-25,57,43,33,40,28,20,79,55,34,29.56,29.32,22,2,22,0.29
2013-4-26,66,48,29,40,27,20,82,48,26,29.65,29.56,13,1,13,0.29
2013-4-27,77,56,36,44,31,10,79,43,19,29.56,29.32,17,3,17,0.29
2013-4-28,61,55,50,56,46,29,90,72,41,29.32,29.06,10,1,10,0.33
2013-4-29,77,63,55,59,51,46,94,69,35,29.20,29.06,8,1,8,0.29
2013-4-30,80,66,52,58,49,46,89,58,33,29.29,29.17,20,3,20,0.29